OEWD

Details ICAO OEWD (EWD)
Name WADI AL DAWASIR
Region Saudi Arabia
Timezone Asia/Riyadh (UTC+3.0)
Plans Departing 3
Arriving 6
Stats Elevation 2,062 ft / 628 m (AMSL)
Location 20.504275° 45.199554°
Runways 1
Magnetic Variation 2.686° E
Sunrise 2018-05-23 02:21:19 UTC / 2018-05-23 05:21:19 Local
Sunset 2018-05-23 15:33:26 UTC / 2018-05-23 18:33:26 Local
Advertisement - Login to hide

Runways

ID Width Length Bearing (true) Bearing (mag) Surface Threshold Offset Overrun Length
10 147 ft / 45 m 9,987 ft / 3,044 m 102.04° 99.35° Asphalt 0 ft / 0 m 395 ft / 120 m
28 147 ft / 45 m 9,987 ft / 3,044 m 282.05° 279.36° Asphalt 0 ft / 0 m 395 ft / 120 m

Approach Navaids

Runway Type Ident Frequency Range Bearing (true) Bearing (mag) Slope Elevation
10 Localiser IWDR 110.50 MHz 18 nm / 33 km 102.38° 99.69° - 2,062 ft / 628 m (AMSL)
10 Glidescope IWDR 110.50 MHz 10 nm / 19 km 102.05° 99.36° 3.00° 2,062 ft / 628 m (AMSL)

Map

Weather


0- 5 10 15 20 25 30 35+ Temperature / ° C

Clouds and Precipitation
Forecast for 2018-05-23 18:00 UTC. Updated 3 hours ago

Ground ~20,000 ft ~40,000 ft Winds

METAR

OEWD 232000Z 11008KT CAVOK 31/10 Q1010 NOSIG

TAF

Not found

Frequencies

Unicom 122.80 MHz CTAF
Warning: Do not use this data for real-world aviation or navigation. No guarantee of current accuracy is given.